TimeCDT,TemperatureF,Dew PointF,Humidity,Sea Level PressureIn,VisibilityMPH,Wind Direction,Wind SpeedMPH,Gust SpeedMPH,PrecipitationIn,Events,Conditions,WindDirDegrees,DateUTC
12:15 AM,29.3,21.0,71,30.26,10.0,NNE,12.7,-,N/A,,Overcast,20,2014-03-25 05:15:00
12:35 AM,28.8,19.6,69,30.26,10.0,North,10.4,-,N/A,,Overcast,10,2014-03-25 05:35:00
12:55 AM,28.4,19.4,69,30.25,10.0,NNE,9.2,-,N/A,,Overcast,20,2014-03-25 05:55:00
1:15 AM,28.6,19.8,70,30.27,10.0,North,9.2,-,N/A,,Overcast,10,2014-03-25 06:15:00
1:35 AM,28.2,19.8,71,30.26,10.0,North,6.9,-,N/A,,Overcast,360,2014-03-25 06:35:00
1:55 AM,28.2,19.9,71,30.27,10.0,North,8.1,-,N/A,,Overcast,10,2014-03-25 06:55:00
2:15 AM,28.0,19.9,72,30.27,10.0,North,8.1,-,N/A,,Overcast,10,2014-03-25 07:15:00
2:35 AM,27.5,18.3,68,30.26,10.0,North,10.4,-,N/A,,Overcast,360,2014-03-25 07:35:00
2:55 AM,27.5,17.8,67,30.26,10.0,North,9.2,-,N/A,,Overcast,10,2014-03-25 07:55:00
3:15 AM,27.1,17.2,66,30.25,10.0,North,10.4,-,N/A,,Overcast,350,2014-03-25 08:15:00
3:35 AM,27.0,18.0,69,30.25,10.0,North,10.4,-,N/A,,Overcast,10,2014-03-25 08:35:00
3:55 AM,26.6,17.8,69,30.25,10.0,North,9.2,-,N/A,,Overcast,360,2014-03-25 08:55:00
4:15 AM,26.4,17.6,69,30.24,10.0,North,8.1,-,N/A,,Overcast,350,2014-03-25 09:15:00
4:35 AM,25.7,18.1,73,30.24,10.0,North,4.6,-,N/A,,Overcast,10,2014-03-25 09:35:00
4:55 AM,24.8,18.3,76,30.23,10.0,North,4.6,-,N/A,,Scattered Clouds,350,2014-03-25 09:55:00
5:15 AM,25.5,18.5,75,30.23,10.0,Calm,Calm,-,N/A,,Mostly Cloudy,0,2014-03-25 10:15:00
5:35 AM,25.0,18.5,76,30.22,10.0,North,3.5,-,N/A,,Overcast,10,2014-03-25 10:35:00
5:55 AM,25.3,18.3,75,30.23,10.0,Calm,Calm,-,N/A,,Overcast,0,2014-03-25 10:55:00
6:15 AM,24.8,19.2,79,30.22,10.0,Calm,Calm,-,N/A,,Overcast,0,2014-03-25 11:15:00
6:35 AM,24.4,19.0,80,30.22,10.0,Calm,Calm,-,N/A,,Mostly Cloudy,0,2014-03-25 11:35:00
6:55 AM,22.8,18.7,84,30.22,10.0,South,5.8,-,N/A,,Scattered Clouds,190,2014-03-25 11:55:00
7:15 AM,23.2,19.9,87,30.22,10.0,South,3.5,-,N/A,,Mostly Cloudy,180,2014-03-25 12:15:00
7:35 AM,24.3,19.8,83,30.21,10.0,SSE,3.5,-,N/A,,Overcast,160,2014-03-25 12:35:00
7:55 AM,24.6,19.4,81,30.21,10.0,SSE,4.6,-,N/A,,Overcast,160,2014-03-25 12:55:00
8:15 AM,25.2,19.9,81,30.21,10.0,SSE,4.6,-,N/A,,Overcast,160,2014-03-25 13:15:00
8:35 AM,25.7,20.3,80,30.21,10.0,SSE,6.9,-,N/A,,Overcast,160,2014-03-25 13:35:00
8:55 AM,26.4,20.3,78,30.20,10.0,South,10.4,-,N/A,,Overcast,170,2014-03-25 13:55:00
9:15 AM,27.3,20.1,74,30.19,10.0,South,12.7,-,N/A,,Mostly Cloudy,190,2014-03-25 14:15:00
9:35 AM,28.0,19.8,71,30.19,10.0,South,12.7,-,N/A,,Clear,190,2014-03-25 14:35:00
9:55 AM,29.1,19.8,68,30.17,10.0,South,16.1,-,N/A,,Clear,180,2014-03-25 14:55:00
10:15 AM,29.7,19.9,67,30.17,10.0,South,16.1,-,N/A,,Clear,190,2014-03-25 15:15:00
10:35 AM,30.9,19.9,64,30.16,10.0,SSW,18.4,-,N/A,,Clear,200,2014-03-25 15:35:00
10:55 AM,31.6,20.7,64,30.16,10.0,South,17.3,-,N/A,,Clear,190,2014-03-25 15:55:00
11:15 AM,32.7,21.0,62,30.14,10.0,SSW,19.6,24.2,N/A,,Clear,200,2014-03-25 16:15:00
11:35 AM,34.7,21.7,59,30.13,10.0,South,19.6,23.0,N/A,,Clear,190,2014-03-25 16:35:00
11:55 AM,35.1,21.7,58,30.12,10.0,SSW,21.9,28.8,N/A,,Clear,200,2014-03-25 16:55:00
12:15 PM,37.2,23.0,56,30.11,10.0,SSW,20.7,-,N/A,,Clear,200,2014-03-25 17:15:00
12:35 PM,37.6,23.7,57,30.09,10.0,SSW,20.7,-,N/A,,Clear,200,2014-03-25 17:35:00
1:15 PM,40.6,25.5,55,30.07,10.0,SSW,18.4,24.2,N/A,,Clear,210,2014-03-25 18:15:00
1:35 PM,41.7,25.5,53,30.05,10.0,SSW,18.4,23.0,N/A,,Clear,210,2014-03-25 18:35:00
1:55 PM,42.8,25.7,51,30.04,10.0,SSW,19.6,25.3,N/A,,Clear,210,2014-03-25 18:55:00
2:15 PM,45.0,26.6,49,30.02,10.0,SSW,19.6,24.2,N/A,,Clear,210,2014-03-25 19:15:00
2:35 PM,45.7,26.4,47,30.00,10.0,SSW,17.3,26.5,N/A,,Clear,210,2014-03-25 19:35:00
2:55 PM,47.5,26.8,45,29.98,10.0,SSW,20.7,25.3,N/A,,Clear,200,2014-03-25 19:55:00
3:15 PM,48.6,26.2,42,29.97,10.0,South,18.4,24.2,N/A,,Clear,190,2014-03-25 20:15:00
3:35 PM,49.8,27.0,41,29.95,10.0,South,18.4,26.5,N/A,,Clear,190,2014-03-25 20:35:00
3:55 PM,50.7,26.1,38,29.94,10.0,South,20.7,-,N/A,,Clear,190,2014-03-25 20:55:00
4:15 PM,50.7,26.2,39,29.93,10.0,South,19.6,23.0,N/A,,Clear,180,2014-03-25 21:15:00
4:35 PM,51.4,25.5,37,29.92,10.0,South,18.4,24.2,N/A,,Clear,190,2014-03-25 21:35:00
4:55 PM,52.3,25.5,35,29.91,10.0,South,17.3,-,N/A,,Clear,190,2014-03-25 21:55:00
5:15 PM,53.1,25.9,35,29.90,10.0,South,17.3,-,N/A,,Clear,180,2014-03-25 22:15:00
5:35 PM,51.8,25.5,36,29.89,10.0,South,15.0,-,N/A,,Clear,180,2014-03-25 22:35:00
5:55 PM,52.7,25.0,34,29.87,10.0,South,17.3,20.7,N/A,,Clear,170,2014-03-25 22:55:00
6:15 PM,52.9,25.3,34,29.86,10.0,South,11.5,-,N/A,,Clear,170,2014-03-25 23:15:00
6:35 PM,53.6,24.8,33,29.85,10.0,SSE,13.8,-,N/A,,Clear,150,2014-03-25 23:35:00
6:55 PM,53.4,27.0,36,29.84,10.0,SSE,12.7,-,N/A,,Clear,160,2014-03-25 23:55:00
7:15 PM,53.4,25.5,34,29.83,10.0,SSE,11.5,-,N/A,,Clear,160,2014-03-26 00:15:00
7:30 PM,53.1,25.9,35,29.83,10.0,SSE,11.5,-,N/A,,Clear,160,2014-03-26 00:30:00
7:55 PM,50.0,27.3,41,29.81,10.0,SSE,8.1,-,N/A,,Clear,160,2014-03-26 00:55:00
8:15 PM,47.7,27.1,45,29.80,10.0,SSE,8.1,-,N/A,,Clear,160,2014-03-26 01:15:00
8:35 PM,46.0,26.4,46,29.80,10.0,SSE,9.2,-,N/A,,Clear,160,2014-03-26 01:35:00
8:55 PM,44.2,27.3,51,29.79,10.0,South,10.4,-,N/A,,Clear,170,2014-03-26 01:55:00
9:15 PM,44.1,26.8,51,29.79,10.0,South,11.5,-,N/A,,Clear,180,2014-03-26 02:15:00
9:35 PM,40.8,27.5,59,29.79,10.0,South,10.4,-,N/A,,Clear,190,2014-03-26 02:35:00
9:55 PM,42.3,25.5,52,29.79,10.0,South,11.5,-,N/A,,Clear,180,2014-03-26 02:55:00
10:15 PM,41.7,25.2,52,29.79,10.0,South,9.2,-,N/A,,Clear,170,2014-03-26 03:15:00
10:35 PM,39.7,25.5,57,29.79,10.0,South,10.4,-,N/A,,Clear,170,2014-03-26 03:35:00
10:55 PM,39.7,24.8,55,29.78,10.0,South,9.2,-,N/A,,Clear,170,2014-03-26 03:55:00
11:15 PM,37.0,25.3,63,29.78,10.0,South,5.8,-,N/A,,Clear,180,2014-03-26 04:15:00
11:35 PM,36.5,25.2,64,29.77,10.0,South,8.1,-,N/A,,Clear,170,2014-03-26 04:35:00
11:55 PM,38.8,24.3,56,29.76,10.0,South,9.2,16.1,N/A,,Clear,190,2014-03-26 04:55:00